EW1890 Weather Reports


Display with metric or nautical units.
time (UTC)temp
F
wind
direction
speed
MPH
gust
MPH
rain 1hr
in
rain 24hr
in
rain mn
in
humidity
%
barometer
mb
20260906225819 75 194 7.0 13.0 0.00 0.00 0.00 27 1017.3
20260906225307 75 202 8.0 13.0 0.00 0.00 0.00 26 1017.4
20260906224831 76 195 9.0 15.0 0.00 0.00 0.00 27 1017.4
20260906224337 76 205 10.0 15.0 0.00 0.00 0.00 26 1017.3
20260906223823 77 211 8.0 14.0 0.00 0.00 0.00 25 1017.5
20260906223321 77 209 11.0 14.0 0.00 0.00 0.00 23 1017.5
20260906222807 78 208 6.0 15.0 0.00 0.00 0.00 23 1017.4
20260906222313 78 214 10.0 21.0 0.00 0.00 0.00 22 1017.6
20260906221814 78 226 14.0 22.0 0.00 0.00 0.00 21 1017.6
20260906221321 78 205 13.0 22.0 0.00 0.00 0.00 22 1017.6
20260906220806 78 209 10.0 20.0 0.00 0.00 0.00 24 1017.6
20260906220333 78 182 10.0 20.0 0.00 0.00 0.00 22 1017.6
20260906215819 78 180 8.0 15.0 0.00 0.00 0.00 23 1017.7
20260906215321 79 227 10.0 17.0 0.00 0.00 0.00 21 1017.7
20260906214820 80 217 9.0 18.0 0.00 0.00 0.00 21 1017.7
20260906214305 80 236 7.0 17.0 0.00 0.00 0.00 21 1017.9
20260906213833 79 224 8.0 16.0 0.00 0.00 0.00 22 1018.1
20260906213318 79 221 11.0 17.0 0.00 0.00 0.00 21 1018.1
20260906212803 79 212 11.0 17.0 0.00 0.00 0.00 20 1018.2
20260906212308 78 172 7.0 16.0 0.00 0.00 0.00 24 1018.3
20260906211834 78 217 8.0 18.0 0.00 0.00 0.00 21 1018.4
20260906211319 79 205 13.0 19.0 0.00 0.00 0.00 22 1018.5
20260906210826 79 199 12.0 19.0 0.00 0.00 0.00 20 1018.4
20260906210305 79 201 12.0 22.0 0.00 0.00 0.00 22 1018.5
20260906205839 80 199 15.0 22.0 0.00 0.00 0.00 20 1018.6
20260906205316 80 185 13.0 21.0 0.00 0.00 0.00 21 1018.6
20260906204849 80 199 14.0 21.0 0.00 0.00 0.00 20 1018.7
20260906204306 79 200 13.0 20.0 0.00 0.00 0.00 22 1018.7
20260906203833 79 211 10.0 17.0 0.00 0.00 0.00 21 1018.7
20260906203319 79 192 13.0 18.0 0.00 0.00 0.00 21 1018.7
20260906202825 79 202 14.0 18.0 0.00 0.00 0.00 21 1018.8
20260906202306 78 215 11.0 23.0 0.00 0.00 0.00 22 1018.6
20260906201808 78 207 12.0 23.0 0.00 0.00 0.00 22 1018.5
20260906201335 78 197 17.0 23.0 0.00 0.00 0.00 23 1018.7
20260906200849 78 165 11.0 22.0 0.00 0.00 0.00 23 1018.8
20260906200307 78 142 12.0 24.0 0.00 0.00 0.00 21 1018.7
20260906195833 78 185 16.0 24.0 0.00 0.00 0.00 22 1018.7
20260906195318 78 182 12.0 20.0 0.00 0.00 0.00 23 1018.7
20260906194826 78 201 7.0 17.0 0.00 0.00 0.00 23 1018.7
20260906194310 78 173 7.0 17.0 0.00 0.00 0.00 23 1018.9
20260906193809 77 185 8.0 17.0 0.00 0.00 0.00 23 1018.9
20260906193315 77 182 12.0 17.0 0.00 0.00 0.00 25 1018.9
20260906192822 76 131 10.0 17.0 0.00 0.00 0.00 24 1019.0
20260906192329 76 156 9.0 15.0 0.00 0.00 0.00 23 1019.2
20260906191813 76 163 9.0 19.0 0.00 0.00 0.00 24 1019.4
20260906191312 76 177 13.0 20.0 0.00 0.00 0.00 25 1019.5
20260906190818 77 153 13.0 21.0 0.00 0.00 0.00 26 1019.6
20260906190304 77 215 13.0 21.0 0.00 0.00 0.00 24 1019.9
20260906185831 76 188 7.0 22.0 0.00 0.00 0.00 25 1019.8
20260906185317 77 182 8.0 20.0 0.00 0.00 0.00 22 1019.9
20260906184817 76 194 10.0 20.0 0.00 0.00 0.00 24 1020.1
20260906184322 75 182 12.0 20.0 0.00 0.00 0.00 23 1020.3
20260906183809 76 159 10.0 18.0 0.00 0.00 0.00 24 1020.3
20260906183337 76 170 13.0 22.0 0.00 0.00 0.00 23 1020.4
20260906182815 76 187 14.0 22.0 0.00 0.00 0.00 24 1020.5
20260906182345 76 207 6.0 17.0 0.00 0.00 0.00 26 1020.5
20260906181806 74 194 11.0 21.0 0.00 0.00 0.00 27 1020.5
20260906181313 74 177 11.0 21.0 0.00 0.00 0.00 26 1020.5
20260906180819 75 168 13.0 18.0 0.00 0.00 0.00 26 1020.5
20260906180319 74 203 3.0 12.0 0.00 0.00 0.00 28 1020.5
20260906175806 73 182 2.0 12.0 0.00 0.00 0.00 27 1020.7
20260906175333 73 148 3.0 11.0 0.00 0.00 0.00 27 1020.8
20260906174818 73 136 2.0 10.0 0.00 0.00 0.00 29 1021.0
20260906174305 72 122 1.0 9.0 0.00 0.00 0.00 29 1021.1
20260906173804 72 169 2.0 9.0 0.00 0.00 0.00 29 1021.2
20260906173310 71 159 4.0 9.0 0.00 0.00 0.00 28 1021.4
20260906172816 71 153 2.0 9.0 0.00 0.00 0.00 29 1021.4
20260906172323 71 171 5.0 10.0 0.00 0.00 0.00 29 1021.4
20260906171807 71 172 3.0 10.0 0.00 0.00 0.00 29 1021.6
20260906171314 71 209 4.0 7.0 0.00 0.00 0.00 29 1021.6
20260906170838 70 132 1.0 8.0 0.00 0.00 0.00 30 1021.7
20260906170324 70 168 3.0 8.0 0.00 0.00 0.00 29 1021.7
20260906165808 69 167 2.0 6.0 0.00 0.00 0.00 29 1021.7
20260906165314 69 154 1.0 6.0 0.00 0.00 0.00 30 1021.8
20260906164820 69 155 1.0 8.0 0.00 0.00 0.00 31 1021.8
20260906164308 68 134 1.0 9.0 0.00 0.00 0.00 32 1021.9
20260906163808 68 135 3.0 9.0 0.00 0.00 0.00 32 1021.9
20260906163313 67 130 2.0 9.0 0.00 0.00 0.00 32 1021.9
20260906162820 67 137 0.0 5.0 0.00 0.00 0.00 32 1021.9
20260906162328 66 144 0.0 6.0 0.00 0.00 0.00 34 1021.9
20260906161814 65 143 0.0 8.0 0.00 0.00 0.00 34 1021.9
20260906161315 65 162 3.0 7.0 0.00 0.00 0.00 36 1022.0
20260906160821 64 137 0.0 0.0 0.00 0.00 0.00 38 1022.0
20260906160328 63 136 0.0 0.0 0.00 0.00 0.00 39 1022.0
20260906155813 62 127 0.0 0.0 0.00 0.00 0.00 41 1022.1
20260906155341 62 125 0.0 0.0 0.00 0.00 0.00 39 1022.2
20260906154808 62 128 0.0 0.0 0.00 0.00 0.00 38 1022.3
20260906154307 61 125 0.0 0.0 0.00 0.00 0.00 40 1022.3
20260906153813 60 125 0.0 0.0 0.00 0.00 0.00 40 1022.3
20260906153320 60 124 0.0 0.0 0.00 0.00 0.00 40 1022.3
20260906152806 59 125 0.0 0.0 0.00 0.00 0.00 41 1022.3
20260906152312 59 125 0.0 0.0 0.00 0.00 0.00 42 1022.3
20260906151811 58 125 0.0 0.0 0.00 0.00 0.00 43 1022.4
20260906151341 58 125 0.0 0.0 0.00 0.00 0.00 44 1022.4
20260906150806 58 125 0.0 0.0 0.00 0.00 0.00 43 1022.4
20260906150313 58 134 0.0 0.0 0.00 0.00 0.00 45 1022.5
20260906145812 57 138 0.0 3.0 0.00 0.00 0.00 47 1022.5
20260906145318 57 107 0.0 0.0 0.00 0.00 0.00 47 1022.5
20260906144805 57 360 0.0 1.0 0.00 0.00 0.00 48 1022.5
20260906144312 56 360 0.0 1.0 0.00 0.00 0.00 49 1022.5
20260906143811 54 350 0.0 0.0 0.00 0.00 0.00 50 1022.4
20260906143319 53 355 0.0 0.0 0.00 0.00 0.00 52 1022.3
20260906142824 52 355 0.0 0.0 0.00 0.00 0.00 53 1022.3
20260906142309 50 355 0.0 0.0 0.00 0.00 0.00 57 1022.3
20260906141809 49 355 0.0 0.0 0.00 0.00 0.00 57 1022.3
20260906141315 48 355 0.0 0.0 0.00 0.00 0.00 58 1022.3
20260906140821 46 355 0.0 0.0 0.00 0.00 0.00 59 1022.3
20260906140329 45 355 0.0 0.0 0.00 0.00 0.00 60 1022.3
20260906135808 44 355 0.0 3.0 0.00 0.00 0.00 62 1022.3
20260906135315 43 355 0.0 5.0 0.00 0.00 0.00 63 1022.3
20260906134822 42 355 2.0 5.0 0.00 0.00 0.00 65 1022.3
20260906134308 41 360 3.0 5.0 0.00 0.00 0.00 67 1022.3
20260906133835 39 11 2.0 3.0 0.00 0.00 0.00 68 1022.3
20260906133314 39 11 0.0 4.0 0.00 0.00 0.00 69 1022.2
20260906132828 38 11 2.0 3.0 0.00 0.00 0.00 69 1022.1
20260906132307 38 11 2.0 3.0 0.00 0.00 0.00 70 1022.1
20260906131813 37 10 1.0 4.0 0.00 0.00 0.00 70 1022.0
20260906131319 37 355 3.0 5.0 0.00 0.00 0.00 70 1021.7
20260906130826 36 355 3.0 5.0 0.00 0.00 0.00 70 1021.8
20260906130305 36 355 4.0 5.0 0.00 0.00 0.00 70 1021.9
20260906125811 36 355 4.0 5.0 0.00 0.00 0.00 69 1021.9
20260906125317 36 355 2.0 3.0 0.00 0.00 0.00 69 1021.9
20260906124826 36 355 0.0 2.0 0.00 0.00 0.00 69 1021.9
20260906124312 36 355 1.0 4.0 0.00 0.00 0.00 69 1021.8
20260906123811 36 355 2.0 5.0 0.00 0.00 0.00 69 1021.8
20260906123324 36 355 4.0 5.0 0.00 0.00 0.00 69 1021.7
20260906122803 36 355 3.0 4.0 0.00 0.00 0.00 68 1021.7
20260906122308 36 355 2.0 4.0 0.00 0.00 0.00 68 1021.7
20260906121814 36 355 2.0 4.0 0.00 0.00 0.00 68 1021.8
20260906121321 37 355 2.0 4.0 0.00 0.00 0.00 67 1021.7
20260906120807 37 355 3.0 4.0 0.00 0.00 0.00 67 1021.7
20260906120314 37 355 3.0 4.0 0.00 0.00 0.00 67 1021.8
20260906115813 38 355 3.0 3.0 0.00 0.00 0.00 66 1021.8
20260906115319 38 355 2.0 2.0 0.00 0.00 0.00 65 1021.9
20260906114806 38 355 0.0 2.0 0.00 0.00 0.00 65 1021.9
20260906114335 38 355 1.0 3.0 0.00 0.00 0.00 66 1021.9
20260906113822 38 355 1.0 3.0 0.00 0.00 0.00 66 1021.9
20260906113321 38 355 2.0 3.0 0.00 0.00 0.00 68 1021.9
20260906112807 38 355 2.0 5.0 0.00 0.00 0.00 68 1021.9
20260906112314 38 355 3.0 5.0 0.00 0.00 0.00 66 1021.9
20260906111823 38 355 3.0 5.0 0.00 0.00 0.00 65 1021.9
20260906111321 38 355 3.0 4.0 0.00 0.00 0.00 65 1021.9
20260906110828 39 355 1.0 3.0 0.00 0.00 0.00 65 1021.9
20260906110313 39 355 2.0 5.0 0.00 0.00 0.00 65 1021.7
20260906105819 39 355 2.0 5.0 0.00 0.00 0.00 65 1021.6
20260906105326 39 355 2.0 5.0 0.00 0.00 0.00 63 1021.7
20260906104805 39 355 0.0 2.0 0.00 0.00 0.00 62 1021.7
20260906104313 40 355 0.0 2.0 0.00 0.00 0.00 61 1021.6
20260906103821 40 355 0.0 3.0 0.00 0.00 0.00 61 1021.7
20260906103328 40 355 2.0 5.0 0.00 0.00 0.00 61 1021.6
20260906102806 40 355 3.0 5.0 0.00 0.00 0.00 61 1021.5
20260906102313 41 355 0.0 2.0 0.00 0.00 0.00 61 1021.5
20260906101820 41 355 0.0 2.0 0.00 0.00 0.00 62 1021.5
20260906101329 41 355 0.0 2.0 0.00 0.00 0.00 62 1021.6
20260906100814 41 355 0.0 2.0 0.00 0.00 0.00 61 1021.6
20260906100320 41 355 1.0 3.0 0.00 0.00 0.00 61 1021.5
20260906095827 41 355 2.0 3.0 0.00 0.00 0.00 60 1021.4
20260906095308 41 355 0.0 3.0 0.00 0.00 0.00 62 1021.4
20260906094834 41 355 1.0 3.0 0.00 0.00 0.00 61 1021.4
20260906094319 41 337 2.0 4.0 0.00 0.00 0.00 61 1021.4
20260906093806 41 337 2.0 4.0 0.00 0.00 0.00 61 1021.2
20260906093312 41 337 2.0 3.0 0.00 0.00 0.00 60 1021.2
20260906092818 41 337 0.0 4.0 0.00 0.00 0.00 60 1021.3
20260906092326 41 337 0.0 4.0 0.00 0.00 0.00 61 1021.2
20260906091832 42 337 3.0 4.0 0.00 0.00 0.00 61 1021.2
20260906091312 42 333 2.0 3.0 0.00 0.00 0.00 61 1021.3
20260906090818 42 333 1.0 3.0 0.00 0.00 0.00 61 1021.3
20260906090326 43 332 3.0 5.0 0.00 0.00 0.00 61 1021.4
20260906085811 43 332 3.0 5.0 0.00 0.00 0.00 61 1021.3
20260906085317 43 332 4.0 5.0 0.00 0.00 0.00 61 1021.3
20260906084825 42 332 4.0 6.0 0.00 0.00 0.00 61 1021.3
20260906084304 42 332 4.0 6.0 0.00 0.00 0.00 62 1021.4
20260906083810 42 332 3.0 4.0 0.00 0.00 0.00 62 1021.4
20260906083318 42 332 1.0 3.0 0.00 0.00 0.00 60 1021.4
20260906082825 43 332 0.0 3.0 0.00 0.00 0.00 58 1021.4
20260906082324 43 332 2.0 4.0 0.00 0.00 0.00 57 1021.2
20260906081810 44 332 2.0 6.0 0.00 0.00 0.00 55 1021.3
20260906081337 44 332 4.0 6.0 0.00 0.00 0.00 55 1021.2
20260906080803 44 332 5.0 6.0 0.00 0.00 0.00 55 1021.2
20260906080310 44 332 5.0 6.0 0.00 0.00 0.00 56 1021.2
20260906075818 44 332 5.0 7.0 0.00 0.00 0.00 58 1021.3
20260906075344 44 332 5.0 6.0 0.00 0.00 0.00 59 1021.3
20260906074825 44 332 4.0 5.0 0.00 0.00 0.00 59 1021.3
20260906074310 44 332 4.0 7.0 0.00 0.00 0.00 59 1021.4
20260906073817 44 332 4.0 7.0 0.00 0.00 0.00 59 1021.3
20260906073306 44 332 5.0 6.0 0.00 0.00 0.00 58 1021.3
20260906072803 44 332 5.0 6.0 0.00 0.00 0.00 55 1021.3
20260906072310 45 332 5.0 5.0 0.00 0.00 0.00 54 1021.3
20260906071816 46 332 4.0 5.0 0.00 0.00 0.00 53 1021.3
20260906071324 47 332 3.0 5.0 0.00 0.00 0.00 51 1021.2
20260906070802 47 332 4.0 5.0 0.00 0.00 0.00 50 1021.2
20260906070309 47 332 3.0 5.0 0.00 0.00 0.00 50 1021.2
20260906065837 47 332 4.0 5.0 0.00 0.00 0.00 51 1021.2
20260906065305 47 332 4.0 5.0 0.00 0.00 0.00 51 1021.2
20260906064808 47 332 4.0 6.0 0.00 0.00 0.00 50 1021.2
20260906064308 47 332 4.0 6.0 0.00 0.00 0.00 48 1021.2
20260906063814 47 333 5.0 6.0 0.00 0.00 0.00 47 1021.1
20260906063321 47 11 3.0 5.0 0.00 0.00 0.00 48 1021.0
20260906062827 47 11 4.0 5.0 0.00 0.00 0.00 48 1021.0
20260906062306 47 36 3.0 5.0 0.00 0.00 0.00 47 1021.1
20260906061813 48 91 2.0 5.0 0.00 0.00 0.00 46 1021.1
20260906061319 48 92 0.0 0.0 0.00 0.00 0.00 45 1021.2
20260906060804 49 92 0.0 0.0 0.00 0.00 0.00 44 1021.0
20260906060310 49 92 0.0 1.0 0.00 0.00 0.00 43 1021.0
20260906055811 49 92 0.0 2.0 0.00 0.00 0.00 44 1021.0
20260906055317 48 92 1.0 3.0 0.00 0.00 0.00 44 1021.1
20260906054803 48 92 2.0 3.0 0.00 0.00 0.00 44 1021.1
20260906054331 48 92 2.0 3.0 0.00 0.00 0.00 46 1021.1
20260906053837 48 92 1.0 5.0 0.00 0.00 0.00 47 1021.1
20260906053303 48 92 2.0 5.0 0.00 0.00 0.00 48 1021.2
20260906052809 49 108 0.0 4.0 0.00 0.00 0.00 49 1021.2
20260906052337 49 355 0.0 3.0 0.00 0.00 0.00 47 1021.2
20260906051824 49 355 0.0 3.0 0.00 0.00 0.00 46 1021.1
20260906051303 49 355 0.0 3.0 0.00 0.00 0.00 45 1021.1
20260906050836 50 355 1.0 4.0 0.00 0.00 0.00 44 1021.1
20260906050343 50 355 2.0 5.0 0.00 0.00 0.00 43 1021.0
20260906045802 50 355 4.0 5.0 0.00 0.00 0.00 43 1021.0
20260906045308 51 355 3.0 4.0 0.00 0.00 0.00 41 1020.9
20260906044815 52 355 2.0 4.0 0.00 0.00 0.00 39 1021.0
20260906044322 53 355 3.0 4.0 0.00 0.00 0.00 38 1021.0
20260906043829 53 355 1.0 5.0 0.00 0.00 0.00 37 1021.0
20260906043309 54 355 4.0 6.0 0.00 0.00 0.00 37 1020.9
20260906042815 54 355 4.0 6.0 0.00 0.00 0.00 37 1020.9
20260906042322 54 355 3.0 6.0 0.00 0.00 0.00 37 1020.9
20260906041809 53 355 4.0 6.0 0.00 0.00 0.00 37 1020.9
20260906041309 53 355 4.0 6.0 0.00 0.00 0.00 37 1020.9
20260906040813 54 355 3.0 5.0 0.00 0.00 0.00 37 1020.8
20260906040340 55 355 3.0 5.0 0.00 0.00 0.00 36 1020.8
20260906035805 55 355 3.0 5.0 0.00 0.00 0.00 35 1020.8
20260906035313 55 355 4.0 6.0 0.00 0.00 0.00 35 1020.7
20260906034821 55 355 4.0 6.0 0.00 0.00 0.00 35 1020.8
20260906034321 55 10 5.0 6.0 0.00 0.00 0.00 35 1020.7
20260906033808 56 5 4.0 6.0 0.00 0.00 0.00 35 1020.7
20260906033336 57 5 5.0 6.0 0.00 0.00 0.00 34 1020.6
20260906032842 57 9 3.0 4.0 0.00 0.00 0.00 34 1020.6
20260906032308 58 9 0.0 5.0 0.00 0.00 0.00 33 1020.5
20260906031814 58 9 2.0 5.0 0.00 0.00 0.00 33 1020.5
20260906031321 57 9 4.0 5.0 0.00 0.00 0.00 33 1020.4
20260906030821 57 9 2.0 4.0 0.00 0.00 0.00 33 1020.4
20260906030307 59 10 0.0 2.0 0.00 0.00 0.00 33 1020.4
20260906025813 60 350 0.0 3.0 0.00 0.00 0.00 31 1020.3
20260906025319 60 346 1.0 5.0 0.00 0.00 0.00 30 1020.3
20260906024825 61 346 2.0 5.0 0.00 0.00 0.00 29 1020.3
20260906024304 62 348 3.0 5.0 0.00 0.00 0.00 28 1020.2
20260906023810 63 349 2.0 3.0 0.00 0.00 0.00 27 1020.1
20260906023317 64 325 1.0 2.0 0.00 0.00 0.00 26 1020.0
20260906022816 65 219 0.0 0.0 0.00 0.00 0.00 24 1020.0
20260906022306 66 219 0.0 2.0 0.00 0.00 0.00 24 1019.9
20260906021808 66 219 0.0 2.0 0.00 0.00 0.00 24 1019.9
20260906021315 66 219 0.0 4.0 0.00 0.00 0.00 24 1019.9
20260906020814 67 219 0.0 4.0 0.00 0.00 0.00 24 1019.9
20260906020320 68 219 1.0 5.0 0.00 0.00 0.00 22 1019.9
20260906015806 68 223 2.0 6.0 0.00 0.00 0.00 22 1019.9
20260906015334 69 217 3.0 7.0 0.00 0.00 0.00 22 1019.8
20260906014820 70 211 3.0 9.0 0.00 0.00 0.00 21 1019.8
20260906014326 71 215 4.0 9.0 0.00 0.00 0.00 21 1019.7
20260906013805 72 232 4.0 11.0 0.00 0.00 0.00 21 1019.8
20260906013311 72 230 6.0 11.0 0.00 0.00 0.00 20 1019.8
20260906012838 72 221 7.0 11.0 0.00 0.00 0.00 20 1019.8
20260906012325 73 219 4.0 9.0 0.00 0.00 0.00 21 1019.9
20260906011810 73 222 5.0 10.0 0.00 0.00 0.00 22 1019.9
20260906011310 73 223 4.0 8.0 0.00 0.00 0.00 22 1019.9
20260906010816 74 210 2.0 6.0 0.00 0.00 0.00 23 1019.9
20260906010324 74 207 3.0 7.0 0.00 0.00 0.00 23 1020.0
20260906005831 74 215 4.0 9.0 0.00 0.00 0.00 23 1020.0
20260906005317 74 211 4.0 10.0 0.00 0.00 0.00 23 1019.9
20260906004843 75 202 6.0 13.0 0.00 0.00 0.00 21 1019.9
20260906004302 76 202 6.0 15.0 0.00 0.00 0.00 20 1019.9
20260906003808 76 217 7.0 17.0 0.00 0.00 0.00 19 1019.9
20260906003314 77 209 10.0 22.0 0.00 0.00 0.00 19 1019.9
20260906002819 78 214 13.0 22.0 0.00 0.00 0.00 19 1019.9
20260906002325 78 205 8.0 14.0 0.00 0.00 0.00 19 1019.8
20260906001804 79 225 10.0 14.0 0.00 0.00 0.00 19 1019.8
20260906001310 79 233 7.0 13.0 0.00 0.00 0.00 17 1019.9
20260906000817 78 229 7.0 15.0 0.00 0.00 0.00 19 1019.9
20260906000318 78 213 7.0 16.0 0.00 0.00 0.00 18 1019.9
20260905235821 79 224 11.0 16.0 0.00 0.00 0.00 18 1019.9
20260905235308 79 220 6.0 15.0 0.00 0.00 0.00 20 1019.9
20260905234814 79 202 9.0 19.0 0.00 0.00 0.00 19 1019.8
20260905234320 79 209 14.0 19.0 0.00 0.00 0.00 17 1019.8
20260905233846 79 201 15.0 18.0 0.00 0.00 0.00 17 1019.8
20260905233306 79 209 13.0 19.0 0.00 0.00 0.00 17 1019.8
20260905232811 80 224 8.0 17.0 0.00 0.00 0.00 18 1019.7
20260905232318 80 200 10.0 18.0 0.00 0.00 0.00 19 1019.8
20260905231825 80 217 9.0 14.0 0.00 0.00 0.00 17 1019.9
20260905231310 79 188 9.0 17.0 0.00 0.00 0.00 18 1019.9
20260905230818 79 207 11.0 21.0 0.00 0.00 0.00 18 1019.9
20260905230316 79 176 12.0 21.0 0.00 0.00 0.00 18 1019.9